When you browse on this site, cookies collect data to enhance your experience and personalize the content and advertising you see.
Visit our Privacy Policy to learn more. By continuing to use the site, you agree to this use of cookies and data.
  • In Hungary
  • List of Countries
  • For 7 days
  • Water Temperature
  • Satellite Maps
  • Weather Map
  • News
  • Weather Widgets
  • user-avatar
    Login

    Hourly Weather Lakatunga

    Today, 13 December, Thursday

    Time Temperature Precipitation Wind Pressure Humidity
    00:00 +11°C° 0.2 mm 1 mps 542 mmHg 86%
    01:00 +11°C° 0.2 mm 1 mps 542 mmHg 86%
    02:00 +11°C° 0.1 mm 1 mps 542 mmHg 87%
    03:00 +11°C° 0.1 mm 1 mps 542 mmHg 87%
    04:00 +11°C° 0.1 mm 1 mps 542 mmHg 87%
    05:00 +11°C° 0 mm 1 mps 542 mmHg 87%
    06:00 +12°C° 0 mm 1 mps 543 mmHg 86%
    07:00 +12°C° 0 mm 1 mps 543 mmHg 85%
    08:00 +14°C° 0 mm 2 mps 544 mmHg 79%
    09:00 +15°C° 0 mm 2 mps 545 mmHg 72%
    10:00 +17°C° 0 mm 2 mps 546 mmHg 66%
    11:00 +17°C° 0.2 mm 2 mps 546 mmHg 66%
    12:00 +18°C° 0.2 mm 2 mps 546 mmHg 66%
    13:00 +18°C° 0.2 mm 2 mps 546 mmHg 66%
    14:00 +17°C° 0.4 mm 2 mps 545 mmHg 69%
    15:00 +17°C° 0.4 mm 2 mps 544 mmHg 71%
    16:00 +16°C° 0.4 mm 2 mps 543 mmHg 74%
    17:00 +15°C° 0.6 mm 2 mps 543 mmHg 78%
    18:00 +13°C° 0.6 mm 1 mps 543 mmHg 83%
    19:00 +12°C° 0.6 mm 1 mps 542 mmHg 88%
    20:00 +12°C° 0.6 mm 1 mps 542 mmHg 88%
    21:00 +11°C° 0.6 mm 1 mps 542 mmHg 89%
    22:00 +11°C° 0.6 mm 1 mps 542 mmHg 90%
    23:00 +11°C° 0.1 mm 1 mps 542 mmHg 89%

    Tomorrow, 14 December, Friday

    Time Temperature Precipitation Wind Pressure Humidity
    00:00 +10°C° 0.1 mm 1 mps 542 mmHg 88%
    01:00 +10°C° 0.1 mm 1 mps 542 mmHg 87%
    02:00 +10°C° 0.1 mm 1 mps 541 mmHg 87%
    03:00 +10°C° 0.1 mm 1 mps 541 mmHg 86%
    04:00 +10°C° 0.1 mm 1 mps 541 mmHg 86%
    05:00 +10°C° 0 mm 1 mps 542 mmHg 84%
    06:00 +11°C° 0 mm 1 mps 542 mmHg 83%
    07:00 +11°C° 0 mm 1 mps 543 mmHg 81%
    08:00 +13°C° 0.1 mm 1 mps 544 mmHg 77%
    09:00 +15°C° 0.1 mm 2 mps 545 mmHg 73%
    10:00 +16°C° 0.1 mm 2 mps 546 mmHg 68%
    11:00 +16°C° 0.3 mm 2 mps 546 mmHg 69%
    12:00 +17°C° 0.3 mm 2 mps 545 mmHg 70%
    13:00 +17°C° 0.3 mm 2 mps 545 mmHg 71%
    14:00 +16°C° 0.6 mm 2 mps 544 mmHg 72%
    15:00 +16°C° 0.6 mm 2 mps 544 mmHg 73%
    16:00 +16°C° 0.6 mm 2 mps 543 mmHg 74%
    17:00 +15°C° 0.8 mm 1 mps 543 mmHg 80%
    18:00 +13°C° 0.8 mm 1 mps 543 mmHg 86%
    19:00 +11°C° 0.8 mm 0 mps 542 mmHg 92%
    20:00 +11°C° 0.2 mm 0 mps 543 mmHg 92%
    21:00 +11°C° 0.2 mm 0 mps 543 mmHg 92%
    22:00 +11°C° 0.2 mm 0 mps 543 mmHg 92%
    23:00 +11°C° 0.1 mm 1 mps 543 mmHg 91%

    Day after tomorrow, 15 December, Saturday

    Time Temperature Precipitation Wind Pressure Humidity
    00:00 +11°C° 0.1 mm 1 mps 543 mmHg 91%
    01:00 +11°C° 0.1 mm 1 mps 543 mmHg 91%
    02:00 +11°C° 0.1 mm 1 mps 542 mmHg 90%
    03:00 +11°C° 0.1 mm 1 mps 542 mmHg 90%
    04:00 +10°C° 0.1 mm 1 mps 541 mmHg 90%
    05:00 +11°C° 0.2 mm 1 mps 542 mmHg 88%
    06:00 +11°C° 0.2 mm 1 mps 542 mmHg 86%
    07:00 +12°C° 0.2 mm 1 mps 543 mmHg 85%
    08:00 +13°C° 0.3 mm 1 mps 544 mmHg 81%
    09:00 +14°C° 0.3 mm 1 mps 545 mmHg 78%
    10:00 +15°C° 0.3 mm 1 mps 546 mmHg 74%
    11:00 +15°C° 0.6 mm 2 mps 545 mmHg 75%
    12:00 +15°C° 0.6 mm 2 mps 545 mmHg 75%
    13:00 +16°C° 0.6 mm 2 mps 545 mmHg 76%
    14:00 +15°C° 1.1 mm 2 mps 544 mmHg 77%
    15:00 +15°C° 1.1 mm 1 mps 543 mmHg 79%
    16:00 +15°C° 1.1 mm 1 mps 543 mmHg 80%
    17:00 +14°C° 0.6 mm 1 mps 542 mmHg 84%
    18:00 +13°C° 0.6 mm 1 mps 542 mmHg 88%
    19:00 +12°C° 0.6 mm 1 mps 542 mmHg 91%
    20:00 +12°C° 0.3 mm 1 mps 542 mmHg 91%
    21:00 +12°C° 0.3 mm 1 mps 543 mmHg 91%
    22:00 +12°C° 0.3 mm 1 mps 543 mmHg 91%
    23:00 +12°C° 0.2 mm 1 mps 543 mmHg 91%

    16 December, Sunday

    Time Temperature Precipitation Wind Pressure Humidity
    00:00 +11°C° 0.2 mm 1 mps 543 mmHg 90%
    01:00 +11°C° 0.2 mm 1 mps 543 mmHg 89%
    02:00 +11°C° 0.1 mm 1 mps 542 mmHg 90%
    03:00 +11°C° 0.1 mm 1 mps 542 mmHg 90%
    04:00 +11°C° 0.1 mm 1 mps 542 mmHg 90%
    05:00 +11°C° 0 mm 1 mps 542 mmHg 89%
    06:00 +11°C° 0 mm 1 mps 543 mmHg 88%
    07:00 +10°C° 0 mm 2 mps 543 mmHg 87%
    08:00 +13°C° 0 mm 2 mps 544 mmHg 80%
    09:00 +15°C° 0 mm 2 mps 546 mmHg 72%
    10:00 +17°C° 0 mm 2 mps 547 mmHg 64%
    11:00 +18°C° 0.2 mm 2 mps 547 mmHg 64%
    12:00 +18°C° 0.2 mm 2 mps 546 mmHg 65%
    13:00 +18°C° 0.2 mm 2 mps 545 mmHg 65%
    14:00 +17°C° 0.4 mm 2 mps 545 mmHg 68%
    15:00 +17°C° 0.4 mm 2 mps 544 mmHg 71%
    16:00 +16°C° 0.4 mm 2 mps 543 mmHg 74%
    17:00 +15°C° 0.8 mm 1 mps 543 mmHg 80%
    18:00 +14°C° 0.8 mm 1 mps 543 mmHg 86%
    19:00 +11°C° 0.8 mm 0 mps 542 mmHg 92%
    20:00 +11°C° 1 mm 0 mps 543 mmHg 92%
    21:00 +11°C° 1 mm 0 mps 543 mmHg 93%
    22:00 +10°C° 1 mm 0 mps 543 mmHg 93%
    23:00 +11°C° 0.6 mm 1 mps 543 mmHg 93%

    17 December, Monday

    Time Temperature Precipitation Wind Pressure Humidity
    00:00 +11°C° 0.6 mm 1 mps 543 mmHg 93%
    01:00 +11°C° 0.6 mm 1 mps 542 mmHg 92%
    02:00 +11°C° 0.6 mm 1 mps 542 mmHg 92%
    03:00 +11°C° 0.6 mm 1 mps 542 mmHg 91%
    04:00 +11°C° 0.6 mm 1 mps 541 mmHg 90%
    05:00 +11°C° 0 mm 1 mps 542 mmHg 88%
    06:00 +11°C° 0 mm 1 mps 542 mmHg 86%
    07:00 +12°C° 0 mm 1 mps 543 mmHg 84%
    08:00 +13°C° 0 mm 1 mps 544 mmHg 79%
    09:00 +15°C° 0 mm 1 mps 545 mmHg 74%
    10:00 +16°C° 0 mm 2 mps 546 mmHg 69%
    11:00 +17°C° 0.3 mm 2 mps 546 mmHg 69%
    12:00 +17°C° 0.3 mm 2 mps 545 mmHg 69%
    13:00 +17°C° 0.3 mm 2 mps 545 mmHg 69%
    14:00 +18°C° 0.6 mm 1 mps 544 mmHg 72%
    15:00 +16°C° 0.6 mm 1 mps 543 mmHg 75%
    16:00 +16°C° 0.6 mm 1 mps 543 mmHg 77%
    17:00 +15°C° 0.5 mm 1 mps 543 mmHg 82%
    18:00 +14°C° 0.5 mm 1 mps 542 mmHg 88%
    19:00 +13°C° 0.5 mm 1 mps 542 mmHg 93%
    20:00 +11°C° 0.5 mm 0 mps 543 mmHg 93%
    21:00 +11°C° 0.5 mm 0 mps 543 mmHg 94%
    22:00 +11°C° 0.5 mm 0 mps 543 mmHg 95%
    23:00 +11°C° 1 mm 0 mps 543 mmHg 95%

    18 December, Tuesday

    Time Temperature Precipitation Wind Pressure Humidity
    00:00 +11°C° 1 mm 0 mps 543 mmHg 94%
    01:00 +11°C° 1 mm 0 mps 542 mmHg 93%
    02:00 +11°C° 1.1 mm 0 mps 542 mmHg 93%
    03:00 +10°C° 1.1 mm 0 mps 541 mmHg 93%
    04:00 +10°C° 1.1 mm 0 mps 541 mmHg 94%
    05:00 +10°C° 0.7 mm 0 mps 542 mmHg 92%
    06:00 +12°C° 0.7 mm 1 mps 542 mmHg 90%
    07:00 +12°C° 0.7 mm 1 mps 543 mmHg 88%
    08:00 +13°C° 0.4 mm 1 mps 543 mmHg 84%
    09:00 +14°C° 0.4 mm 1 mps 544 mmHg 79%
    10:00 +15°C° 0.4 mm 1 mps 545 mmHg 74%
    11:00 +16°C° 0.4 mm 1 mps 545 mmHg 74%
    12:00 +16°C° 0.4 mm 2 mps 544 mmHg 73%
    13:00 +17°C° 0.4 mm 2 mps 544 mmHg 72%
    14:00 +16°C° 0.9 mm 2 mps 543 mmHg 74%
    15:00 +16°C° 0.9 mm 1 mps 543 mmHg 76%
    16:00 +15°C° 0.9 mm 1 mps 542 mmHg 78%
    17:00 +14°C° 1.3 mm 1 mps 542 mmHg 83%
    18:00 +13°C° 1.3 mm 1 mps 542 mmHg 89%
    19:00 +11°C° 1.3 mm 0 mps 542 mmHg 94%
    20:00 +11°C° 0.9 mm 0 mps 542 mmHg 94%
    21:00 +11°C° 0.9 mm 0 mps 543 mmHg 95%
    22:00 +11°C° 0.9 mm 0 mps 543 mmHg 95%
    23:00 +12°C° 0.2 mm 1 mps 543 mmHg 94%
    Show more